COSMOS 1553

Satellite information

Favourite Embed

Satellite Type and Status

PAYLOADIN ORBIT

Key statistics

Satellite COSMOS 1553 at a glance.

Uptime

14969

Days in orbit

Revolutions

≈ 13.8

Per day

Orbit

LEO

Low Earth Orbit

Inclination

82.9

Latest

Satellite identification and parameters

Extended collection of information and parameters for COSMOS 1553.

Object identification

Identified? True

Debris? False

Object name: COSMOS 1553

International designator: 1984-046A

Object number (NORAD): 14973

Object ID (CCSDS): 14973

Country: COMMONWEALTH OF INDEPENDENT STATES (CIS)

Current information (Y/N): Y

RCS size: LARGE

Orbital parameters

Period: 104.684 minutes

Inclination: 82.938 deg

SMA: 7357.766 km

Apoapsis: 1002.477 km

Periapsis: 956.785 km

RAAN: 190.8473 deg

Eccentricy: 0.003105

Argument of periapsis: 318.514 deg

Mean anomaly: 179.3607 deg

Mean motion: 13.75573506 rev/day

Mean motion (dot): 0.00000078 rev/day2

B* drag term: 0.000065533 1/REarth

Two-line elements (TLE)

Creation date: May 11, 2025, 2:40 a.m.

Reference frame: TEME

Reference center: EARTH

Epoch: May 10, 2025, 7:19 p.m. UTC

TLE line 0: 0 COSMOS 1553

TLE line 1: 1 14973U 84046A 25130.80518571 .00000078 00000-0 65533-4 0 9993

TLE line 2: 2 14973 82.9380 190.8473 0031050 318.5140 179.3607 13.75573506 56409

Live tracking on map

Real-time ground track for satellite COSMOS 1553.

In-orbit conjunctions

There are no conjunctions computed for COSMOS 1553, at the moment. Check back to stay up to date, as we update our databases every day.

Go to all conjunctions

Associated space launch

Civilian navigation satellite equivalent to the purely military Parus

COSMOS 1553 was lifted into orbit during the mission ‘Kosmos-3M | Tsikada 11’, on board a Kosmos-3M space rocket.

The launch took place on May 17, 1984, 2:43 p.m. from 132/1 (132L).

For more information about the launch, click the button.

Launch to space Kosmos-3M | Tsikada 11
Kosmos-3M | Tsikada 11

Agency: N/A

Status: Launch Successful

Launch date: May 17, 1984, 2:43 p.m. UTC

Rocket: Kosmos-3M

Launch pad: 132/1 (132L)

Location: Plesetsk Cosmodrome, Russian Federation

...

Latest news about this satellite

There are no fresh news available about this satellite. Check back as we update our databases every day.


Newsletter sign-up

Weekly statistics, charts and insights to help you stay on top of the space industry.